Location: Newark
(34.0131°N, 4.3314°W)
Time: 17:08:04
(UTC+00:00)

SR - Pass Details

Date: 19 October 2019
Orbit: 574 x 882 km, 66.7° (Epoch: 16 November)

Event Time Altitude Azimuth Distance (km) Brightness Sun altitude
Rises 06:13:59 0° 351° (N) 3,456 ? -3.1°
Reaches altitude 10° 06:17:43 10° 15° (NNE) 2,538 ? -2.4°
Maximum altitude 06:20:56 15° 48° (NE) 2,216 ? -1.7°
Drops below altitude 10° 06:24:08 10° 81° (E) 2,533 ? -1.1°
Sets 06:27:50 0° 104° (ESE) 3,446 ? -0.3°
